Location: Arpaise
(41.0333°N, 14.7333°E)
Time: 21:35:41
(UTC+00:00)

Cosmos 846 Rocket - Pass Details

Date: 20 January 2021
Orbit: 948 x 991 km, 82.9° (Epoch: 06 March)

Event Time Altitude Azimuth Distance (km) Brightness Sun altitude
Rises 18:29:34 0° 185° (S) 3,672 8.6 -27.3°
Reaches altitude 10° 18:32:04 10° 186° (S) 2,723 7.9 -27.8°
Maximum altitude 18:38:20 89° 272° (W) 978 5.4 -29.0°
Enters shadow 18:39:47 56° 5° (N) 1,142 5.7 -29.2°
